Kuujjuarapik Airport


Codes: CYGW/YGW
Name: Kuujjuarapik Airport
City: Kuujjuarapik
Country: Canada
Elevation: 34 ft.
Wikipedia:

Photos at Kuujjuarapik Airport


   Photos courtesy of SpottingLog. You can add your own sightings and photos by signing up for a free trial today.



No photos found.

Weather at Kuujjuarapik Airport


Time (UTC)DescriptionTempratureWindCloud coverageVisibilityPressureHumidity
18-Apr-2024 00:00Overcast Clouds1°C9 mph, E100%10000m1030hPa86%
18-Apr-2024 03:00Overcast Clouds0°C9 mph, SE100%10000m1029hPa77%
18-Apr-2024 06:00Overcast Clouds0°C11 mph, SE100%10000m1026hPa72%
18-Apr-2024 09:00Overcast Clouds-1°C9 mph, E100%10000m1026hPa76%
18-Apr-2024 12:00Overcast Clouds1°C16 mph, SE100%10000m1025hPa72%
18-Apr-2024 15:00Overcast Clouds2°C13 mph, SE100%10000m1023hPa76%
18-Apr-2024 18:00Overcast Clouds4°C16 mph, SE100%10000m1021hPa69%
18-Apr-2024 21:00Overcast Clouds5°C16 mph, SE100%10000m1018hPa63%
19-Apr-2024 00:00Overcast Clouds4°C13 mph, SE100%10000m1017hPa63%
19-Apr-2024 03:00Overcast Clouds3°C13 mph, SE100%10000m1015hPa67%
19-Apr-2024 06:00Overcast Clouds2°C16 mph, SE100%10000m1012hPa73%
19-Apr-2024 09:00Light Rain2°C13 mph, SE100%10000m1010hPa82%
19-Apr-2024 12:00Snow1°C16 mph, SE100%1044m1007hPa97%
19-Apr-2024 15:00Light Snow2°C13 mph, SE100%28m1005hPa98%
19-Apr-2024 18:00Snow1°C11 mph, SE100%33m1002hPa99%
19-Apr-2024 21:00Snow1°C7 mph, S100%36m999hPa100%
20-Apr-2024 00:00Snow1°C7 mph, SW100%66m997hPa99%
20-Apr-2024 03:00Snow0°C9 mph, SW100%35m994hPa99%
20-Apr-2024 06:00Snow0°C11 mph, SW100%43m991hPa99%
20-Apr-2024 09:00Snow-0°C13 mph, SW100%72m989hPa99%
20-Apr-2024 12:00Light Snow-1°C13 mph, SW100%135m987hPa98%
20-Apr-2024 15:00Snow-1°C20 mph, NW100%114m988hPa97%
20-Apr-2024 18:00Snow-1°C22 mph, NW100%118m990hPa97%
20-Apr-2024 21:00Light Snow-2°C25 mph, NW100%4859m995hPa87%
21-Apr-2024 00:00Overcast Clouds-6°C20 mph, W100%7171m998hPa88%
21-Apr-2024 03:00Light Snow-5°C16 mph, W100%150m998hPa96%
21-Apr-2024 06:00Light Snow-14°C18 mph, NW100%2535m1002hPa95%
21-Apr-2024 09:00Overcast Clouds-17°C16 mph, NW100%10000m1004hPa89%
21-Apr-2024 12:00Overcast Clouds-18°C16 mph, NW100%10000m1005hPa83%
21-Apr-2024 15:00Overcast Clouds-17°C16 mph, W100%2252m1006hPa79%
21-Apr-2024 18:00Light Snow-16°C16 mph, W100%1976m1007hPa77%
21-Apr-2024 21:00Light Snow-17°C18 mph, NW100%4711m1009hPa77%
22-Apr-2024 00:00Overcast Clouds-18°C11 mph, NW100%8604m1011hPa77%
22-Apr-2024 03:00Overcast Clouds-19°C4 mph, NW100%10000m1012hPa83%
22-Apr-2024 06:00Overcast Clouds-20°C4 mph, W99%10000m1012hPa87%
22-Apr-2024 09:00Overcast Clouds-20°C7 mph, NW100%10000m1013hPa96%
22-Apr-2024 12:00Overcast Clouds-19°C7 mph, NW99%10000m1015hPa82%
22-Apr-2024 15:00Overcast Clouds-18°C11 mph, W100%10000m1015hPa69%
22-Apr-2024 18:00Overcast Clouds-16°C11 mph, W100%4752m1016hPa72%
22-Apr-2024 21:00Light Snow-16°C9 mph, W100%10000m1016hPa70%